Rogers City, MI

11:45 PM EDT on August 28, 2016 (GMT -0400)
Presque Isle County

Weather History for KPZQ - May, 2013

Change the Weather History Date:

Friday, May 24, 2013

  Actual Average (KAPN) Record (KAPN)
Temperature  
Mean Temperature 45 °F 55 °F  
Max Temperature 53 °F 67 °F 89 °F (2016)
Min Temperature 37 °F 43 °F 24 °F (1963)
Degree Days  
Heating Degree Days 20 11  
Month to date heating degree days 333  
Since 1 July heating degree days 7892  
Cooling Degree Days 0 1  
Month to date cooling degree days 1  
Year to date cooling degree days 3  
Moisture  
Dew Point 31 °F    
Average Humidity 60    
Maximum Humidity 75    
Minimum Humidity 42    
Precipitation  
Precipitation 0.00 in 0.09 in 0.80 in (2003)
Month to date precipitation 2.02  
Year to date precipitation 9.25  
Sea Level Pressure  
Sea Level Pressure 30.34 in    
Wind  
Wind Speed 9 mph (North)    
Max Wind Speed 13 mph    
Max Gust Speed 20 mph    
Visibility 10 miles    
Events      
T = Trace of Precipitation, MM = Missing Value Source: NWS Daily Summary

Daily Weather History Graph

Daily Weather History Graph

Search for Another Location

Airport or City:

Trip Planner

Search our weather history database for the weather conditions in past years. The results will help you decide how hot, cold, wet, or windy it might be!

Date:

Astronomy

May. 24, 2013 Rise Set
Actual Time 5:55 AM EDT 9:09 PM EDT
Civil Twilight 5:19 AM EDT 9:45 PM EDT
Nautical Twilight 4:33 AM EDT 10:31 PM EDT
Astronomical Twilight 3:36 AM EDT 11:29 PM EDT
Moon 8:48 PM EDT (5/24) 5:29 AM EDT (5/24)
Length of Visible Light 16h 25m
Length of Day
15h 13m
Full, 100% of the Moon is Illuminated
May 24
Full
May 25
Full
May 31
Last Quarter
Jun 8
New
Jun 16
First Quarter

Hourly Weather History & Observations

Time (EDT) Temp. Windchill Dew Point Humidity Pressure Visibility Wind Dir Wind Speed Gust Speed Precip Events Conditions
12:15 AM 39.6 °F 33.5 °F 32.4 °F 75% 30.25 in 10.0 mi North 9.2 mph 16.1 mph N/A   Clear
12:34 AM 39.4 °F 33.2 °F 31.6 °F 74% 30.25 in 10.0 mi NNE 9.2 mph 18.4 mph N/A   Clear
12:55 AM 39.2 °F 32.5 °F 30.2 °F 70% 30.26 in 10.0 mi NNE 10.4 mph 18.4 mph N/A   Clear
1:15 AM 39.2 °F 31.6 °F 30.0 °F 70% 30.26 in 10.0 mi NNE 12.7 mph 18.4 mph N/A   Clear
1:34 AM 38.8 °F 33.2 °F 29.8 °F 70% 30.27 in 10.0 mi North 8.1 mph - N/A   Clear
1:55 AM 38.5 °F 32.1 °F 30.2 °F 72% 30.27 in 10.0 mi North 9.2 mph - N/A   Clear
2:15 AM 38.1 °F 32.3 °F 30.6 °F 74% 30.27 in 10.0 mi North 8.1 mph - N/A   Scattered Clouds
2:35 AM 38.5 °F 32.7 °F 31.1 °F 75% 30.27 in 10.0 mi North 8.1 mph - N/A   Mostly Cloudy
2:55 AM 38.7 °F 32.9 °F 30.2 °F 72% 30.27 in 10.0 mi North 8.1 mph - N/A   Overcast
3:15 AM 38.7 °F 31.4 °F 29.7 °F 70% 30.27 in 10.0 mi North 11.5 mph 17.3 mph N/A   Overcast
3:35 AM 38.5 °F 32.1 °F 29.1 °F 69% 30.28 in 10.0 mi North 9.2 mph 17.3 mph N/A   Overcast
3:55 AM 38.3 °F 31.9 °F 28.9 °F 69% 30.28 in 10.0 mi North 9.2 mph 17.3 mph N/A   Overcast
4:14 AM 38.3 °F 33.2 °F 28.2 °F 67% 30.29 in 10.0 mi North 6.9 mph 17.3 mph N/A   Overcast
4:35 AM 37.8 °F 30.2 °F 27.7 °F 67% 30.30 in 10.0 mi North 11.5 mph 17.3 mph N/A   Overcast
4:55 AM 37.8 °F 30.7 °F 27.3 °F 66% 30.30 in 10.0 mi North 10.4 mph 16.1 mph N/A   Overcast
5:14 AM 37.6 °F 30.5 °F 27.1 °F 66% 30.30 in 10.0 mi North 10.4 mph - N/A   Overcast
5:35 AM 37.6 °F 30.5 °F 27.1 °F 66% 30.31 in 10.0 mi North 10.4 mph 19.6 mph N/A   Overcast
5:55 AM 37.8 °F 30.7 °F 27.5 °F 67% 30.31 in 10.0 mi North 10.4 mph 16.1 mph N/A   Overcast
6:15 AM 37.8 °F 32.5 °F 27.3 °F 66% 30.32 in 10.0 mi North 6.9 mph 18.4 mph N/A   Overcast
6:35 AM 37.8 °F 31.3 °F 27.3 °F 66% 30.33 in 10.0 mi North 9.2 mph 16.1 mph N/A   Overcast
6:55 AM 37.9 °F 32.1 °F 26.8 °F 64% 30.34 in 10.0 mi North 8.1 mph - N/A   Overcast
7:15 AM 37.8 °F 31.3 °F 27.5 °F 67% 30.35 in 10.0 mi North 9.2 mph 16.1 mph N/A   Overcast
7:35 AM 37.8 °F 29.8 °F 27.3 °F 66% 30.35 in 10.0 mi North 12.7 mph 18.4 mph N/A   Mostly Cloudy
7:55 AM 38.5 °F 31.6 °F 28.0 °F 66% 30.36 in 10.0 mi North 10.4 mph - N/A   Overcast
8:15 AM 39.4 °F 31.8 °F 28.6 °F 65% 30.37 in 10.0 mi North 12.7 mph 16.1 mph N/A   Mostly Cloudy
8:35 AM 39.9 °F 33.4 °F 27.0 °F 60% 30.37 in 10.0 mi North 10.4 mph 17.3 mph N/A   Scattered Clouds
8:55 AM 40.1 °F 33.2 °F 27.0 °F 59% 30.38 in 10.0 mi North 11.5 mph 16.1 mph N/A   Clear
9:15 AM 41.4 °F 37.6 °F 28.9 °F 61% 30.38 in 10.0 mi North 5.8 mph - N/A   Clear
9:34 AM 41.0 °F 34.3 °F 27.3 °F 58% 30.38 in 10.0 mi North 11.5 mph - N/A   Clear
9:55 AM 41.7 °F 36.7 °F 28.4 °F 59% 30.39 in 10.0 mi North 8.1 mph - N/A   Clear
10:15 AM 41.9 °F 36.9 °F 28.9 °F 60% 30.40 in 10.0 mi North 8.1 mph - N/A   Clear
10:34 AM 42.3 °F 37.3 °F 29.5 °F 61% 30.40 in 10.0 mi North 8.1 mph - N/A   Clear
10:55 AM 41.9 °F 36.3 °F 29.7 °F 62% 30.40 in 10.0 mi North 9.2 mph - N/A   Clear
11:15 AM 42.3 °F 37.3 °F 30.2 °F 62% 30.39 in 10.0 mi North 8.1 mph - N/A   Clear
11:35 AM 42.6 °F 38.4 °F 30.6 °F 62% 30.39 in 10.0 mi NNW 6.9 mph - N/A   Clear
11:55 AM 42.8 °F 38.0 °F 30.6 °F 62% 30.39 in 10.0 mi North 8.1 mph - N/A   Clear
12:14 PM 43.2 °F 37.9 °F 30.0 °F 60% 30.39 in 10.0 mi North 9.2 mph - N/A   Clear
12:35 PM 43.7 °F 39.7 °F 30.2 °F 59% 30.40 in 10.0 mi NNW 6.9 mph - N/A   Clear
12:55 PM 44.4 °F 40.0 °F 31.5 °F 60% 30.40 in 10.0 mi NNW 8.1 mph 16.1 mph N/A   Clear
1:15 PM 44.8 °F 39.9 °F 31.1 °F 59% 30.39 in 10.0 mi North 9.2 mph - N/A   Clear
1:35 PM 46.0 °F 41.9 °F 31.8 °F 58% 30.39 in 10.0 mi North 8.1 mph - N/A   Clear
1:55 PM 46.0 °F 41.4 °F 31.1 °F 56% 30.38 in 10.0 mi North 9.2 mph - N/A   Clear
2:15 PM 46.6 °F - 29.5 °F 51% 30.38 in 10.0 mi North 10.4 mph - N/A   Clear
2:35 PM 47.7 °F - 31.3 °F 53% 30.39 in 10.0 mi North 8.1 mph - N/A   Clear
2:54 PM 48.4 °F - 31.5 °F 52% 30.38 in 10.0 mi NNW 8.1 mph - N/A   Clear
3:15 PM 49.3 °F - 31.8 °F 51% 30.38 in 10.0 mi North 9.2 mph - N/A   Clear
3:34 PM 49.5 °F - 32.2 °F 51% 30.38 in 10.0 mi North 8.1 mph - N/A   Clear
3:55 PM 50.4 °F - 32.4 °F 50% 30.37 in 10.0 mi North 8.1 mph - N/A   Clear
4:15 PM 50.7 °F - 32.4 °F 49% 30.36 in 10.0 mi North 6.9 mph - N/A   Clear
4:35 PM 51.1 °F - 31.6 °F 47% 30.36 in 10.0 mi North 6.9 mph - N/A   Clear
4:55 PM 51.6 °F - 31.1 °F 45% 30.35 in 10.0 mi North 9.2 mph - N/A   Clear
5:15 PM 52.0 °F - 31.3 °F 45% 30.35 in 10.0 mi North 6.9 mph - N/A   Clear
5:35 PM 52.3 °F - 30.9 °F 44% 30.34 in 10.0 mi North 9.2 mph - N/A   Clear
5:54 PM 52.9 °F - 30.9 °F 43% 30.33 in 10.0 mi NNW 9.2 mph - N/A   Clear
6:15 PM 53.1 °F - 31.8 °F 44% 30.33 in 10.0 mi NW 9.2 mph - N/A   Clear
6:35 PM 52.7 °F - 30.4 °F 42% 30.33 in 10.0 mi NNW 8.1 mph 17.3 mph N/A   Clear
6:54 PM 52.5 °F - 31.1 °F 44% 30.33 in 10.0 mi NW 9.2 mph - N/A   Clear
7:15 PM 53.4 °F - 32.0 °F 44% 30.32 in 10.0 mi NNW 8.1 mph - N/A   Clear
7:35 PM 53.6 °F - 31.8 °F 44% 30.32 in 10.0 mi WNW 3.5 mph - N/A   Clear
7:55 PM 53.1 °F - 31.8 °F 44% 30.32 in 10.0 mi NW 4.6 mph - N/A   Clear
8:15 PM 52.2 °F - 32.0 °F 46% 30.32 in 10.0 mi NNW 4.6 mph - N/A   Clear
8:35 PM 51.1 °F - 33.1 °F 50% 30.32 in 10.0 mi NNW 4.6 mph - N/A   Clear
8:55 PM 49.3 °F - 34.3 °F 56% 30.32 in 10.0 mi NW 4.6 mph - N/A   Clear
9:15 PM 48.4 °F - 32.9 °F 55% 30.32 in 10.0 mi NW 3.5 mph - N/A   Clear
9:34 PM 47.1 °F - 33.8 °F 60% 30.32 in 10.0 mi NW 5.8 mph - N/A   Clear
9:55 PM 46.2 °F 43.3 °F 34.7 °F 64% 30.33 in 10.0 mi NW 5.8 mph - N/A   Clear
10:15 PM 45.9 °F 42.3 °F 35.1 °F 66% 30.33 in 10.0 mi NW 6.9 mph - N/A   Clear
10:34 PM 45.5 °F 41.3 °F 34.9 °F 66% 30.35 in 10.0 mi NW 8.1 mph - N/A   Clear
10:55 PM 44.8 °F 41.0 °F 32.9 °F 63% 30.35 in 10.0 mi NW 6.9 mph - N/A   Clear
11:15 PM 43.7 °F 41.1 °F 33.6 °F 68% 30.36 in 10.0 mi NW 4.6 mph - N/A   Clear
11:35 PM 42.8 °F 40.1 °F 34.0 °F 71% 30.36 in 10.0 mi WNW 4.6 mph - N/A   Clear
11:55 PM 41.9 °F 40.0 °F 34.5 °F 75% 30.36 in 10.0 mi West 3.5 mph - N/A   Clear